When you browse on this site, cookies collect data to enhance your experience and personalize the content and advertising you see.
Visit our Privacy Policy to learn more. By continuing to use the site, you agree to this use of cookies and data.
  • Em Portugal
  • Lista de países
  • Para 7 dias
  • Temperatura da água
  • Mapas de satélite
  • Mapa do tempo
  • Widgets de tempo
  • user-avatar
    Iniciar Sessão

    Previsão horária em Byala

    Hoje, 21 Abril, Domingo

    Tempo Temperatura Precipitação Vento Pressão Humidade
    00:00 +4°C° 0 mm 3 m/s 759 mmHg 65%
    01:00 +3°C° 0 mm 3 m/s 759 mmHg 68%
    02:00 +3°C° 0 mm 3 m/s 758 mmHg 70%
    03:00 +3°C° 0 mm 3 m/s 758 mmHg 71%
    04:00 +3°C° 0 mm 3 m/s 758 mmHg 73%
    05:00 +3°C° 0 mm 4 m/s 758 mmHg 74%
    06:00 +4°C° 0 mm 4 m/s 758 mmHg 70%
    07:00 +6°C° 0 mm 4 m/s 758 mmHg 65%
    08:00 +8°C° 0 mm 4 m/s 758 mmHg 61%
    09:00 +10°C° 0 mm 3 m/s 758 mmHg 56%
    10:00 +12°C° 0 mm 3 m/s 758 mmHg 50%
    11:00 +15°C° 0 mm 2 m/s 758 mmHg 44%
    12:00 +15°C° 0 mm 2 m/s 758 mmHg 46%
    13:00 +15°C° 0 mm 2 m/s 757 mmHg 47%
    14:00 +14°C° 0 mm 3 m/s 757 mmHg 49%
    15:00 +13°C° 0 mm 3 m/s 757 mmHg 52%
    16:00 +13°C° 0 mm 3 m/s 757 mmHg 55%
    17:00 +12°C° 0 mm 4 m/s 756 mmHg 58%
    18:00 +11°C° 0 mm 3 m/s 756 mmHg 62%
    19:00 +9°C° 0 mm 3 m/s 756 mmHg 66%
    20:00 +8°C° 0 mm 3 m/s 756 mmHg 71%
    21:00 +8°C° 0 mm 2 m/s 756 mmHg 71%
    22:00 +7°C° 0 mm 2 m/s 756 mmHg 72%
    23:00 +7°C° 0 mm 2 m/s 756 mmHg 72%

    Amanhã, 22 Abril, Segunda-feira

    Tempo Temperatura Precipitação Vento Pressão Humidade
    00:00 +7°C° 0 mm 2 m/s 756 mmHg 72%
    01:00 +6°C° 0 mm 2 m/s 756 mmHg 72%
    02:00 +6°C° 0 mm 2 m/s 756 mmHg 72%
    03:00 +6°C° 0 mm 2 m/s 756 mmHg 72%
    04:00 +6°C° 0 mm 2 m/s 756 mmHg 73%
    05:00 +6°C° 0 mm 2 m/s 755 mmHg 73%
    06:00 +7°C° 0 mm 2 m/s 756 mmHg 69%
    07:00 +9°C° 0 mm 3 m/s 756 mmHg 66%
    08:00 +10°C° 0 mm 4 m/s 756 mmHg 62%
    09:00 +11°C° 0 mm 4 m/s 756 mmHg 60%
    10:00 +12°C° 0 mm 5 m/s 756 mmHg 58%
    11:00 +13°C° 0 mm 6 m/s 756 mmHg 55%
    12:00 +13°C° 0 mm 6 m/s 756 mmHg 55%
    13:00 +13°C° 0 mm 6 m/s 756 mmHg 56%
    14:00 +13°C° 0 mm 6 m/s 756 mmHg 56%
    15:00 +11°C° 0 mm 6 m/s 756 mmHg 57%
    16:00 +12°C° 0 mm 5 m/s 756 mmHg 58%
    17:00 +10°C° 0 mm 5 m/s 756 mmHg 59%
    18:00 +9°C° 0 mm 5 m/s 756 mmHg 62%
    19:00 +8°C° 0 mm 5 m/s 756 mmHg 65%
    20:00 +7°C° 0 mm 5 m/s 757 mmHg 68%
    21:00 +7°C° 0 mm 4 m/s 757 mmHg 70%
    22:00 +7°C° 0 mm 4 m/s 757 mmHg 71%
    23:00 +6°C° 0 mm 4 m/s 757 mmHg 73%

    Depois de amanhã, 23 Abril, Terça-feira

    Tempo Temperatura Precipitação Vento Pressão Humidade
    00:00 +7°C° 0 mm 3 m/s 757 mmHg 75%
    01:00 +7°C° 0 mm 3 m/s 757 mmHg 76%
    02:00 +7°C° 0 mm 3 m/s 757 mmHg 78%
    03:00 +7°C° 0 mm 3 m/s 757 mmHg 79%
    04:00 +7°C° 0 mm 2 m/s 757 mmHg 79%
    05:00 +7°C° 0 mm 2 m/s 757 mmHg 80%
    06:00 +8°C° 0 mm 3 m/s 757 mmHg 78%
    07:00 +9°C° 0 mm 3 m/s 758 mmHg 75%
    08:00 +10°C° 0 mm 4 m/s 758 mmHg 73%
    09:00 +10°C° 0 mm 4 m/s 758 mmHg 70%
    10:00 +11°C° 0 mm 4 m/s 758 mmHg 66%
    11:00 +12°C° 0 mm 5 m/s 758 mmHg 63%
    12:00 +12°C° 0 mm 5 m/s 758 mmHg 61%
    13:00 +12°C° 0 mm 5 m/s 758 mmHg 60%
    14:00 +13°C° 0 mm 6 m/s 757 mmHg 58%
    15:00 +12°C° 0 mm 5 m/s 757 mmHg 63%
    16:00 +10°C° 0 mm 5 m/s 757 mmHg 68%
    17:00 +10°C° 0 mm 5 m/s 757 mmHg 73%
    18:00 +9°C° 0 mm 5 m/s 757 mmHg 74%
    19:00 +9°C° 0 mm 5 m/s 757 mmHg 76%
    20:00 +9°C° 0 mm 5 m/s 757 mmHg 78%
    21:00 +9°C° 0 mm 5 m/s 757 mmHg 79%
    22:00 +8°C° 0 mm 4 m/s 757 mmHg 81%
    23:00 +8°C° 0 mm 4 m/s 757 mmHg 82%

    24 Abril, Quarta-feira

    Tempo Temperatura Precipitação Vento Pressão Humidade
    00:00 +8°C° 0 mm 4 m/s 757 mmHg 84%
    01:00 +9°C° 0 mm 3 m/s 757 mmHg 87%
    02:00 +9°C° 0 mm 2 m/s 757 mmHg 89%
    03:00 +8°C° 0 mm 3 m/s 757 mmHg 90%
    04:00 +8°C° 0 mm 3 m/s 757 mmHg 91%
    05:00 +8°C° 0 mm 3 m/s 757 mmHg 93%
    06:00 +9°C° 0 mm 3 m/s 757 mmHg 87%
    07:00 +11°C° 0 mm 4 m/s 758 mmHg 82%
    08:00 +12°C° 0 mm 4 m/s 758 mmHg 76%
    09:00 +13°C° 0 mm 4 m/s 758 mmHg 72%
    10:00 +14°C° 0 mm 4 m/s 758 mmHg 67%
    11:00 +15°C° 0 mm 4 m/s 758 mmHg 63%
    12:00 +15°C° 0 mm 4 m/s 758 mmHg 63%
    13:00 +17°C° 0 mm 4 m/s 758 mmHg 63%
    14:00 +17°C° 0 mm 4 m/s 758 mmHg 63%
    15:00 +15°C° 0 mm 4 m/s 758 mmHg 66%
    16:00 +14°C° 0 mm 4 m/s 758 mmHg 68%
    17:00 +14°C° 0 mm 4 m/s 758 mmHg 71%
    18:00 +12°C° 0 mm 4 m/s 758 mmHg 77%
    19:00 +11°C° 0 mm 3 m/s 758 mmHg 83%
    20:00 +9°C° 0 mm 3 m/s 758 mmHg 90%
    21:00 +9°C° 0 mm 3 m/s 758 mmHg 90%
    22:00 +9°C° 0 mm 3 m/s 758 mmHg 90%
    23:00 +9°C° 0 mm 2 m/s 759 mmHg 91%

    25 Abril, Quinta-feira

    Tempo Temperatura Precipitação Vento Pressão Humidade
    00:00 +9°C° 0 mm 2 m/s 758 mmHg 90%
    01:00 +9°C° 0 mm 2 m/s 758 mmHg 90%
    02:00 +9°C° 0 mm 2 m/s 758 mmHg 90%
    03:00 +9°C° 0 mm 2 m/s 758 mmHg 90%
    04:00 +8°C° 0 mm 2 m/s 758 mmHg 91%
    05:00 +8°C° 0 mm 2 m/s 758 mmHg 91%
    06:00 +10°C° 0 mm 3 m/s 758 mmHg 86%
    07:00 +11°C° 0 mm 3 m/s 759 mmHg 80%
    08:00 +13°C° 0 mm 3 m/s 759 mmHg 75%
    09:00 +14°C° 0 mm 3 m/s 759 mmHg 71%
    10:00 +16°C° 0 mm 3 m/s 759 mmHg 67%
    11:00 +17°C° 0 mm 4 m/s 759 mmHg 63%
    12:00 +17°C° 0 mm 4 m/s 759 mmHg 63%
    13:00 +17°C° 0 mm 4 m/s 759 mmHg 63%
    14:00 +17°C° 0 mm 4 m/s 758 mmHg 63%
    15:00 +15°C° 0 mm 4 m/s 758 mmHg 66%
    16:00 +14°C° 0 mm 4 m/s 758 mmHg 70%
    17:00 +13°C° 0 mm 4 m/s 758 mmHg 73%
    18:00 +12°C° 0 mm 4 m/s 758 mmHg 79%
    19:00 +11°C° 0 mm 3 m/s 758 mmHg 85%
    20:00 +9°C° 0 mm 2 m/s 758 mmHg 90%
    21:00 +9°C° 0 mm 2 m/s 758 mmHg 90%
    22:00 +9°C° 0 mm 2 m/s 758 mmHg 90%
    23:00 +8°C° 0 mm 2 m/s 758 mmHg 90%

    26 Abril, Sexta-feira

    Tempo Temperatura Precipitação Vento Pressão Humidade
    00:00 +8°C° 0 mm 2 m/s 757 mmHg 90%
    01:00 +8°C° 0 mm 2 m/s 757 mmHg 90%
    02:00 +8°C° 0 mm 2 m/s 757 mmHg 90%
    03:00 +8°C° 0 mm 2 m/s 757 mmHg 90%
    04:00 +8°C° 0 mm 2 m/s 756 mmHg 90%
    05:00 +8°C° 0 mm 2 m/s 756 mmHg 90%
    06:00 +9°C° 0 mm 2 m/s 756 mmHg 84%
    07:00 +12°C° 0 mm 2 m/s 756 mmHg 78%
    08:00 +13°C° 0 mm 2 m/s 756 mmHg 72%
    09:00 +14°C° 0 mm 3 m/s 756 mmHg 68%
    10:00 +16°C° 0 mm 3 m/s 756 mmHg 64%
    11:00 +17°C° 0 mm 3 m/s 756 mmHg 60%
    12:00 +17°C° 0 mm 3 m/s 755 mmHg 59%
    13:00 +17°C° 0 mm 3 m/s 755 mmHg 59%
    14:00 +17°C° 0 mm 4 m/s 755 mmHg 58%
    15:00 +17°C° 0 mm 4 m/s 754 mmHg 62%
    16:00 +15°C° 0 mm 4 m/s 754 mmHg 65%
    17:00 +14°C° 0 mm 3 m/s 754 mmHg 69%
    18:00 +13°C° 0 mm 3 m/s 754 mmHg 76%
    19:00 +12°C° 0 mm 2 m/s 754 mmHg 84%
    20:00 +9°C° 0 mm 2 m/s 754 mmHg 91%
    21:00 +9°C° 0 mm 2 m/s 753 mmHg 92%
    22:00 +10°C° 0 mm 1 m/s 753 mmHg 92%
    23:00 +10°C° 0 mm 1 m/s 753 mmHg 92%
    Mostrar mais